Copper Harbor, MI

8:56 AM EDT on August 18, 2017 (GMT -0400)
Copper Harbor

Weather History for KP59 - June, 2013

Change the Weather History Date:

Wednesday, June 26, 2013

  Actual Average Record
Temperature  
Mean Temperature 66 °F -  
Max Temperature 81 °F 68 °F 91 °F (2001)
Min Temperature 52 °F 48 °F 44 °F (2008)
Cooling Degree Days 2    
Growing Degree Days 16 (Base 50)    
Moisture  
Dew Point 57 °F    
Average Humidity 81    
Maximum Humidity 100    
Minimum Humidity 60    
Precipitation  
Precipitation 0.74 in - - ()
Sea Level Pressure  
Sea Level Pressure 29.73 in    
Wind  
Wind Speed 7 mph (SW)    
Max Wind Speed 37 mph    
Max Gust Speed 47 mph    
Averages and records for this station are not official NWS values.
T = Trace of Precipitation, MM = Missing Value Source: NWS Daily Summary

Daily Weather History Graph

Daily Weather History Graph

Search for Another Location

Airport or City:

Trip Planner

Search our weather history database for the weather conditions in past years. The results will help you decide how hot, cold, wet, or windy it might be!

Date:

Astronomy

Jun. 26, 2013 Rise Set
Actual Time 5:56 AM EDT 9:52 PM EDT
Civil Twilight 5:15 AM EDT 10:33 PM EDT
Nautical Twilight 4:20 AM EDT 11:28 PM EDT
Astronomical Twilight 2:52 AM EDT 12:55 AM EDT
Moon 11:55 PM EDT (6/26) 10:04 AM EDT (6/26)
Length of Visible Light 17h 17m
Length of Day
15h 56m
Waning Gibbous, 85% of the Moon is Illuminated
Jun 26
Waning Gibbous
Jun 30
Last Quarter
Jul 8
New
Jul 15
First Quarter
Jul 22
Full

Hourly Weather History & Observations

Time (EDT) Temp. Heat Index Dew Point Humidity Pressure Visibility Wind Dir Wind Speed Gust Speed Precip Events Conditions
12:51 AM 60.1 °F - 55.9 °F 86% 29.76 in - WSW 10.4 mph 17.3 mph N/A   Unknown
1:51 AM 62.1 °F - 55.9 °F 80% 29.76 in - WSW 8.1 mph - N/A   Unknown
2:51 AM 63.0 °F - 55.9 °F 78% 29.75 in - WSW 8.1 mph - N/A   Unknown
3:51 AM 62.1 °F - 55.9 °F 80% 29.74 in - WSW 9.2 mph - N/A   Unknown
4:51 AM 63.0 °F - 57.9 °F 84% 29.73 in - WSW 9.2 mph - N/A   Unknown
5:51 AM 64.0 °F - 57.9 °F 80% 29.73 in - WSW 10.4 mph - N/A   Unknown
6:51 AM 66.9 °F - 57.0 °F 70% 29.73 in - Calm Calm - N/A   Unknown
7:51 AM 57.9 °F - 53.1 °F 84% 29.75 in - Calm Calm - N/A   Unknown
8:51 AM 54.0 °F - 48.0 °F 80% 29.76 in - Calm Calm - N/A   Unknown
9:51 AM 52.0 °F - 46.0 °F 80% 29.76 in - Calm Calm - N/A   Unknown
10:51 AM 57.0 °F - 48.0 °F 72% 29.74 in - Calm Calm - N/A   Unknown
11:51 AM 59.0 °F - 48.9 °F 69% 29.72 in - Calm Calm - N/A   Unknown
12:51 PM 77.0 °F - 64.0 °F 64% 29.70 in - Variable 6.9 mph - N/A   Unknown
1:51 PM 78.1 °F - 64.9 °F 64% 29.71 in - Variable 3.5 mph - N/A   Unknown
2:51 PM 80.1 °F 81.9 °F 64.9 °F 60% 29.68 in - South 5.8 mph - N/A   Unknown
3:51 PM 81.0 °F 83.3 °F 66.9 °F 62% 29.68 in - Variable 6.9 mph - N/A   Unknown
4:51 PM 79.0 °F - 66.0 °F 64% 29.66 in - Variable 5.8 mph - N/A   Unknown
5:51 PM 73.9 °F - 63.0 °F 68% 29.66 in - SSW 6.9 mph 16.1 mph N/A   Unknown
6:12 PM 53.6 °F - 51.8 °F 94% 29.79 in - North 36.8 mph 47.2 mph N/A   Unknown
6:18 PM 53.6 °F - 51.8 °F 94% 29.83 in - North 16.1 mph 47.2 mph N/A   Unknown
6:51 PM 57.0 °F - 57.0 °F 100% 29.78 in - ESE 3.5 mph - 0.47 in   Unknown
7:51 PM 59.0 °F - 59.0 °F 100% 29.72 in - Calm Calm - 0.21 in   Unknown
8:51 PM 59.0 °F - 59.0 °F 100% 29.72 in - Calm Calm - 0.06 in   Unknown
9:51 PM 62.1 °F - 62.1 °F 100% 29.74 in - Calm Calm - N/A   Unknown
10:51 PM 59.0 °F - 57.9 °F 96% 29.74 in - SW 8.1 mph - N/A   Unknown
11:51 PM 59.0 °F - 59.0 °F 100% 29.73 in - WSW 12.7 mph 19.6 mph N/A   Unknown